Location: ?????????
(54.7630°N, 39.4991°E)
Time: 11:07:07
(UTC+00:00)

Cosmos 1864 Rocket - Pass Details

Date: 14 April 2026
Orbit: 951 x 995 km, 82.9° (Epoch: 10 May)

Event Time Altitude Azimuth Distance (km) Brightness Sun altitude
Exits shadow 21:23:07 59° 201° (SSW) 1,129 4.5 -25.6°
Maximum altitude 21:24:24 84° 280° (W) 1,000 4.4 -25.6°
Drops below altitude 10° 21:30:48 10° 10° (N) 2,770 7.9 -25.6°
Sets 21:33:21 0° 12° (NNE) 3,726 8.9 -25.5°
